Weather History for Randolph AFB, TX

Change the Weather History Date:

Saturday, October 13, 2012

  Actual Average Record
Temperature  
Mean Temperature 80 °F -  
Max Temperature 87 °F 77 °F 91 °F (1999)
Min Temperature 73 °F 58 °F 57 °F (1996)
Cooling Degree Days 15    
Growing Degree Days 30 (Base 50)    
Moisture  
Dew Point 73 °F    
Average Humidity 89    
Maximum Humidity 100    
Minimum Humidity 62    
Precipitation  
Precipitation 0.00 in - - ()
Sea Level Pressure  
Sea Level Pressure 30.01 in    
Wind  
Wind Speed 11 mph (South)    
Max Wind Speed 18 mph    
Max Gust Speed 24 mph    
Visibility 10 miles    
Events      
Averages and records for this station are not official NWS values.
T = Trace of Precipitation, MM = Missing Value Source: NWS Daily Summary

Daily Weather History Graph

Daily Weather History Graph

Search for Another Location

Airport:

Trip Planner

Search our weather history database for the weather conditions in past years. The results will help you decide how hot, cold, wet, or windy it might be!

Date:

Astronomy

Oct. 13, 2012 Rise Set
Actual Time 7:33 AM CDT 7:04 PM CDT
Civil Twilight 7:09 AM CDT 7:28 PM CDT
Nautical Twilight 6:42 AM CDT 7:55 PM CDT
Astronomical Twilight 6:14 AM CDT 8:23 PM CDT
Moon 5:32 AM CDT (10/13) 5:44 PM CDT (10/13)
Length of Visible Light 12h 18m
Length of Day
11h 30m
Waning Crescent, 5% of the Moon is Illuminated
Oct 13
Waning Crescent
Oct 15
New
Oct 21
First Quarter
Oct 29
Full
Nov 6
Last Quarter

Hourly Weather History & Observations

Time (CDT) Temp. Heat Index Dew Point Humidity Pressure Visibility Wind Dir Wind Speed Gust Speed Precip Events Conditions
12:55 AM 74.8 °F - 73.0 °F 94% 30.08 in 10.0 mi SSE 11.5 mph - N/A   Mostly Cloudy
1:02 AM 75.2 °F - 73.4 °F 94% 30.08 in 10.0 mi SSE 11.5 mph - N/A   Mostly Cloudy
1:17 AM 75.2 °F - 73.4 °F 94% 30.08 in 10.0 mi SSE 10.4 mph - N/A   Mostly Cloudy
1:43 AM 75.2 °F - 73.4 °F 94% 30.07 in 10.0 mi SSE 10.4 mph - N/A   Scattered Clouds
1:55 AM 75.2 °F - 73.4 °F 94% 30.07 in 10.0 mi South 12.7 mph - N/A   Scattered Clouds
2:55 AM 75.0 °F - 73.2 °F 94% 30.06 in 10.0 mi SSE 9.2 mph - N/A   Scattered Clouds
3:55 AM 74.5 °F - 73.0 °F 95% 30.04 in 10.0 mi South 11.5 mph - N/A   Partly Cloudy
4:40 AM 75.2 °F - 73.4 °F 94% 30.04 in 10.0 mi SSE 11.5 mph - N/A   Mostly Cloudy
4:44 AM 75.2 °F - 73.4 °F 94% 30.04 in 10.0 mi South 12.7 mph - N/A   Mostly Cloudy
4:55 AM 74.7 °F - 73.8 °F 97% 30.04 in 10.0 mi South 11.5 mph - N/A   Mostly Cloudy
5:00 AM 75.2 °F - 73.4 °F 94% 30.04 in 10.0 mi South 11.5 mph - N/A   Mostly Cloudy
5:01 AM 75.2 °F - 73.4 °F 94% 30.04 in 10.0 mi South 11.5 mph - N/A   Mostly Cloudy
5:17 AM 75.2 °F - 73.4 °F 94% 30.04 in 10.0 mi SSE 12.7 mph - N/A   Mostly Cloudy
5:55 AM 73.8 °F - 73.4 °F 99% 30.04 in 10.0 mi South 8.1 mph - N/A   Scattered Clouds
6:09 AM 73.4 °F - 73.4 °F 100% 30.04 in 10.0 mi South 6.9 mph - N/A   Mostly Cloudy
6:21 AM 73.4 °F - 73.4 °F 100% 30.04 in 10.0 mi South 6.9 mph - N/A   Scattered Clouds
6:23 AM 73.4 °F - 73.4 °F 100% 30.04 in 10.0 mi SSE 6.9 mph - N/A   Mostly Cloudy
6:52 AM 73.4 °F - 73.4 °F 100% 30.04 in 10.0 mi South 6.9 mph - N/A   Mostly Cloudy
6:55 AM 73.2 °F - 73.0 °F 99% 30.04 in 10.0 mi South 8.1 mph - N/A   Scattered Clouds
7:09 AM 73.4 °F - 73.4 °F 100% 30.04 in 10.0 mi South 6.9 mph - N/A   Partly Cloudy
7:55 AM 73.8 °F - 73.4 °F 99% 30.05 in 10.0 mi South 6.9 mph - N/A   Scattered Clouds
8:55 AM 74.8 °F - 73.2 °F 95% 30.04 in 10.0 mi South 9.2 mph - N/A   Scattered Clouds
9:13 AM 75.2 °F - 73.4 °F 94% 30.04 in 10.0 mi SSE 11.5 mph - N/A   Mostly Cloudy
9:30 AM 75.2 °F - 73.4 °F 94% 30.04 in 10.0 mi South 11.5 mph - N/A   Mostly Cloudy
9:52 AM 77.0 °F - 73.4 °F 89% 30.04 in 10.0 mi South 11.5 mph - N/A   Mostly Cloudy
9:55 AM 76.6 °F - 73.9 °F 91% 30.04 in 10.0 mi South 11.5 mph - N/A   Mostly Cloudy
10:01 AM 77.0 °F - 73.4 °F 89% 30.04 in 10.0 mi South 11.5 mph - N/A   Mostly Cloudy
10:14 AM 77.0 °F - 73.4 °F 89% 30.03 in 10.0 mi South 13.8 mph 20.7 mph N/A   Scattered Clouds
10:20 AM 77.0 °F - 73.4 °F 89% 30.04 in 10.0 mi South 12.7 mph - N/A   Mostly Cloudy
10:22 AM 77.0 °F - 73.4 °F 89% 30.04 in 10.0 mi South 13.8 mph - N/A   Scattered Clouds
10:55 AM 77.5 °F - 73.6 °F 88% 30.04 in 10.0 mi South 15.0 mph - N/A   Scattered Clouds
11:55 AM 78.4 °F - 73.9 °F 86% 30.01 in 10.0 mi South 10.4 mph - 0.00 in   Light Drizzle
12:05 PM 78.8 °F - 73.4 °F 83% 30.02 in 10.0 mi South 11.5 mph - N/A   Scattered Clouds
12:55 PM 82.9 °F 89.4 °F 73.8 °F 74% 30.00 in 10.0 mi South 13.8 mph - 0.00 in   Clear
1:55 PM 83.8 °F 90.4 °F 73.4 °F 71% 29.96 in 10.0 mi South 13.8 mph - N/A   Partly Cloudy
2:55 PM 85.6 °F 92.6 °F 73.2 °F 66% 29.92 in 10.0 mi South 16.1 mph - N/A   Clear
3:55 PM 87.4 °F 94.8 °F 73.0 °F 62% 29.90 in 10.0 mi South 13.8 mph - N/A   Clear
4:55 PM 86.5 °F 92.9 °F 72.1 °F 62% 29.88 in 10.0 mi South 11.5 mph - N/A   Clear
6:55 PM 82.4 °F 89.0 °F 74.7 °F 77% 29.86 in 10.0 mi SSE 17.3 mph 23.0 mph N/A   Clear
7:55 PM 80.1 °F 84.5 °F 73.9 °F 81% 29.89 in 10.0 mi SSE 15.0 mph - N/A   Clear
8:31 PM 78.8 °F - 73.4 °F 83% 29.90 in 10.0 mi SSE 18.4 mph 24.2 mph N/A   Mostly Cloudy
8:55 PM 79.0 °F - 73.6 °F 83% 29.92 in 10.0 mi SSE 10.4 mph - N/A   Overcast
9:11 PM 78.8 °F - 73.4 °F 83% 29.93 in 10.0 mi SSE 15.0 mph - N/A   Overcast
9:55 PM 78.1 °F - 73.2 °F 85% 29.95 in 10.0 mi SSE 15.0 mph - N/A   Mostly Cloudy
10:42 PM 77.0 °F - 73.4 °F 89% 29.95 in 10.0 mi SSE 16.1 mph - N/A   Scattered Clouds
10:55 PM 76.6 °F - 72.7 °F 87% 29.96 in 10.0 mi SSE 12.7 mph - N/A   Scattered Clouds
11:55 PM 75.9 °F - 71.4 °F 86% 29.95 in 10.0 mi South 12.7 mph - N/A   Clear